W7KKE-3 Weather Reports


Display with metric or nautical units.
time (UTC)temp
F
wind
direction
speed
MPH
gust
MPH
rain 1hr
in
rain 24hr
in
rain mn
in
humidity
%
barometer
mb
20260903232825 59 71 4.0 10.0 0.05 0.98 0.98 90 1003.9
20260903232325 59 106 3.0 10.0 0.05 0.97 0.97 90 1004.0
20260903231825 60 119 2.0 10.0 0.06 0.96 0.96 90 1004.1
20260903231326 60 187 7.0 8.0 0.06 0.95 0.96 90 1004.1
20260903230825 60 154 4.0 8.0 0.06 0.95 0.95 90 1004.1
20260903230325 59 163 3.0 8.0 0.06 0.94 0.94 90 1004.2
20260903230035 59 170 1.0 10.0 0.05 0.93 0.94 90 1004.2
20260903225825 59 170 1.0 10.0 0.05 0.93 0.94 90 1004.2
20260903225325 59 100 1.0 10.0 0.05 0.93 0.93 90 1004.2
20260903224825 59 173 4.0 10.0 0.05 0.92 0.92 90 1004.2
20260903224326 59 135 2.0 7.0 0.05 0.92 0.92 90 1004.3
20260903223825 59 175 2.0 7.0 0.04 0.92 0.92 90 1004.2
20260903223325 59 107 3.0 7.0 0.04 0.91 0.92 90 1004.2
20260903222825 59 166 1.0 7.0 0.05 0.91 0.91 90 1004.2
20260903222325 59 82 3.0 7.0 0.05 0.91 0.91 90 1004.2
20260903221825 59 170 3.0 12.0 0.15 0.90 0.90 89 1004.3
20260903221326 59 102 2.0 12.0 0.15 0.89 0.89 89 1004.3
20260903220825 59 200 4.0 12.0 0.17 0.89 0.89 89 1004.2
20260903220325 59 176 5.0 10.0 0.17 0.88 0.88 89 1004.3
20260903215825 59 124 8.0 10.0 0.16 0.88 0.88 89 1004.2
20260903215325 59 138 3.0 10.0 0.16 0.87 0.87 89 1004.2
20260903214825 59 113 5.0 8.0 0.17 0.87 0.87 89 1004.2
20260903213825 59 113 2.0 6.0 0.17 0.87 0.87 89 1004.3
20260903213325 58 194 1.0 6.0 0.17 0.87 0.87 89 1004.2
20260903212825 59 74 2.0 6.0 0.16 0.87 0.87 88 1004.3
20260903212325 59 109 4.0 11.0 0.16 0.86 0.86 88 1004.4
20260903211825 59 186 4.0 11.0 0.04 0.82 0.83 88 1004.6
20260903211326 60 158 3.0 11.0 0.04 0.75 0.75 87 1004.7
20260903210825 60 105 3.0 11.0 0.01 0.72 0.72 87 1004.6
20260903205825 60 208 6.0 11.0 0.01 0.72 0.71 87 1004.4
20260903205325 60 175 4.0 8.0 0.01 0.72 0.71 88 1004.4
20260903204825 60 163 4.0 17.0 0.00 0.72 0.71 87 1004.4
20260903204327 60 197 5.0 17.0 0.00 0.72 0.70 87 1004.4
20260903203825 61 179 6.0 17.0 0.00 0.72 0.70 87 1004.4
20260903203325 61 197 7.0 16.0 0.00 0.72 0.70 87 1004.3
20260903202825 61 165 6.0 9.0 0.00 0.72 0.70 89 1004.2
20260903202325 62 123 2.0 16.0 0.00 0.72 0.70 89 1004.2
20260903201825 62 163 3.0 16.0 0.01 0.72 0.70 90 1004.3
20260903201326 62 173 3.0 16.0 0.01 0.72 0.70 90 1004.3
20260903200825 61 175 3.0 10.0 0.02 0.72 0.70 90 1004.4
20260903200325 61 72 2.0 9.0 0.02 0.72 0.70 91 1004.2
20260903195825 60 210 4.0 6.0 0.02 0.74 0.70 91 1004.3
20260903195325 60 120 2.0 6.0 0.02 0.74 0.70 91 1004.4
20260903194826 59 182 3.0 4.0 0.02 0.74 0.70 91 1004.4
20260903194326 59 133 1.0 8.0 0.02 0.74 0.70 91 1004.5
20260903193825 59 168 1.0 8.0 0.02 0.74 0.70 91 1004.6
20260903193325 59 137 3.0 8.0 0.02 0.74 0.70 91 1004.7
20260903192825 58 145 4.0 8.0 0.04 0.74 0.70 91 1004.8
20260903192325 58 127 2.0 8.0 0.04 0.74 0.70 90 1004.8
20260903191825 58 184 2.0 8.0 0.04 0.74 0.69 90 1004.8
20260903191326 58 158 2.0 7.0 0.04 0.74 0.69 90 1004.8
20260903190825 58 162 3.0 9.0 0.04 0.74 0.69 91 1004.8
20260903190325 58 163 2.0 9.0 0.04 0.74 0.68 91 1004.8
20260903185825 58 198 4.0 9.0 0.08 0.84 0.68 90 1004.8
20260903185325 58 205 4.0 8.0 0.08 0.84 0.68 90 1004.9
20260903184825 58 165 2.0 8.0 0.08 0.84 0.68 90 1004.9
20260903184326 58 245 4.0 8.0 0.08 0.84 0.68 90 1004.8
20260903183325 58 162 3.0 9.0 0.08 0.84 0.68 91 1004.9
20260903182825 58 196 1.0 9.0 0.07 0.84 0.67 90 1004.9
20260903182325 58 191 3.0 9.0 0.07 0.84 0.66 90 1004.9
20260903181825 58 149 3.0 5.0 0.07 0.84 0.66 90 1004.9
20260903181326 58 154 1.0 9.0 0.07 0.84 0.65 90 1004.9
20260903180825 58 175 3.0 9.0 0.06 0.84 0.65 90 1004.9
20260903180325 58 70 4.0 9.0 0.06 0.84 0.65 90 1004.9
20260903175825 58 198 3.0 10.0 0.04 0.84 0.63 90 1004.9
20260903175325 58 84 2.0 10.0 0.04 0.84 0.61 90 1004.9
20260903174825 58 149 5.0 10.0 0.07 0.84 0.60 90 1004.9
20260903174326 58 163 1.0 14.0 0.07 0.84 0.60 90 1004.9
20260903173826 58 47 4.0 14.0 0.11 0.84 0.60 90 1004.8
20260903173325 58 142 6.0 14.0 0.11 0.84 0.60 90 1004.9
20260903172825 58 182 5.0 13.0 0.10 0.84 0.59 90 1004.8
20260903172326 58 198 4.0 16.0 0.10 0.84 0.59 90 1004.8
20260903171825 58 165 8.0 16.0 0.09 0.84 0.58 90 1004.6
20260903171326 59 182 6.0 16.0 0.09 0.84 0.58 90 1004.6
20260903170825 58 193 7.0 15.0 0.09 0.84 0.58 91 1004.6
20260903170325 58 217 6.0 22.0 0.09 0.84 0.58 91 1004.7
20260903165825 58 191 9.0 22.0 0.07 0.83 0.58 90 1004.7
20260903165325 58 207 9.0 22.0 0.07 0.83 0.57 90 1004.7
20260903164825 58 197 9.0 17.0 0.04 0.83 0.56 90 1004.7
20260903164326 59 190 8.0 21.0 0.04 0.83 0.54 90 1004.7
20260903163825 59 205 8.0 21.0 0.00 0.83 0.52 90 1004.7
20260903163325 59 182 12.0 21.0 0.00 0.83 0.49 90 1004.6
20260903162826 59 133 2.0 8.0 0.07 0.83 0.49 90 1004.4
20260903162329 59 140 4.0 8.0 0.07 0.83 0.49 90 1004.4
20260903161825 59 222 5.0 17.0 0.07 0.83 0.49 90 1004.4
20260903161326 59 204 3.0 17.0 0.07 0.83 0.49 90 1004.6
20260903160827 59 190 4.0 17.0 0.07 0.83 0.49 90 1004.6
20260903160325 59 166 5.0 13.0 0.07 0.83 0.49 90 1004.6
20260903155826 59 96 2.0 11.0 0.07 0.82 0.49 90 1004.5
20260903155325 59 156 4.0 10.0 0.07 0.82 0.49 90 1004.4
20260903154825 58 166 3.0 13.0 0.07 0.82 0.49 90 1004.4
20260903154326 58 155 4.0 13.0 0.07 0.82 0.49 90 1004.4
20260903153825 58 172 5.0 13.0 0.10 0.82 0.49 90 1004.4
20260903153325 58 135 8.0 11.0 0.10 0.82 0.49 90 1004.4
20260903152826 58 165 6.0 9.0 0.05 0.82 0.47 90 1004.5
20260903152325 58 110 3.0 7.0 0.05 0.82 0.42 90 1004.4
20260903151825 58 212 4.0 10.0 0.07 0.82 0.42 90 1004.4
20260903151326 58 156 5.0 10.0 0.07 0.82 0.42 90 1004.5
20260903150825 58 84 4.0 10.0 0.09 0.82 0.42 90 1004.4
20260903150325 57 84 4.0 9.0 0.09 0.82 0.42 90 1004.3
20260903145826 57 85 3.0 8.0 0.11 0.80 0.42 90 1004.3
20260903145325 57 77 4.0 8.0 0.11 0.80 0.42 90 1004.2
20260903144825 57 93 3.0 6.0 0.14 0.80 0.42 90 1004.2
20260903144326 56 142 1.0 13.0 0.14 0.80 0.42 90 1004.1
20260903143825 56 219 3.0 13.0 0.11 0.80 0.42 90 1004.2
20260903143325 56 232 4.0 13.0 0.11 0.80 0.42 90 1004.5
20260903142825 56 204 3.0 14.0 0.10 0.80 0.38 90 1004.5
20260903142325 56 208 5.0 14.0 0.10 0.80 0.37 90 1004.3
20260903141825 56 228 3.0 14.0 0.10 0.80 0.37 90 1004.3
20260903141326 56 214 6.0 9.0 0.10 0.80 0.35 90 1004.4
20260903140825 56 169 4.0 16.0 0.09 0.80 0.34 90 1004.5
20260903135826 56 173 2.0 16.0 0.07 0.72 0.33 90 1004.4
20260903135325 56 212 5.0 12.0 0.07 0.72 0.32 90 1004.4
20260903134825 56 204 5.0 12.0 0.07 0.72 0.31 89 1004.4
20260903134326 57 172 4.0 12.0 0.07 0.72 0.29 89 1004.3
20260903133825 57 124 4.0 10.0 0.07 0.72 0.28 89 1004.2
20260903133325 57 70 3.0 10.0 0.07 0.72 0.28 89 1004.2
20260903132826 57 140 3.0 10.0 0.06 0.72 0.27 89 1004.1
20260903132325 57 159 4.0 17.0 0.06 0.72 0.27 89 1004.2
20260903131826 57 197 4.0 17.0 0.04 0.72 0.27 89 1004.1
20260903131326 57 172 6.0 17.0 0.04 0.72 0.26 89 1004.2
20260903130825 57 177 7.0 15.0 0.03 0.72 0.24 89 1004.3
20260903125826 57 191 9.0 21.0 0.03 0.69 0.24 89 1004.4
20260903125325 58 201 7.0 21.0 0.03 0.69 0.24 89 1004.3
20260903124825 58 190 4.0 15.0 0.00 0.69 0.23 89 1004.2
20260903124327 58 180 5.0 13.0 0.00 0.69 0.23 89 1004.4
20260903123825 58 179 6.0 13.0 0.00 0.69 0.21 89 1004.2
20260903123325 58 75 5.0 11.0 0.00 0.69 0.21 89 1004.2
20260903122326 58 168 5.0 13.0 0.00 0.69 0.21 89 1004.2
20260903121825 58 140 3.0 13.0 0.00 0.69 0.21 89 1004.3
20260903121326 58 196 3.0 13.0 0.00 0.69 0.21 89 1004.4
20260903120825 58 201 6.0 12.0 0.00 0.69 0.21 89 1004.4
20260903120325 58 161 6.0 11.0 0.00 0.69 0.21 89 1004.3
20260903115826 58 135 3.0 11.0 0.00 0.69 0.21 89 1004.4
20260903115326 58 124 4.0 14.0 0.00 0.69 0.21 89 1004.5
20260903114825 58 161 5.0 14.0 0.01 0.69 0.21 89 1004.5
20260903114326 58 130 7.0 14.0 0.01 0.69 0.21 89 1004.4
20260903113325 58 190 5.0 18.0 0.05 0.69 0.21 89 1004.7
20260903112826 58 180 5.0 18.0 0.07 0.69 0.21 89 1004.6
20260903112325 58 123 8.0 22.0 0.07 0.69 0.21 89 1004.7
20260903111825 58 175 5.0 22.0 0.09 0.69 0.21 89 1004.7
20260903111326 58 190 8.0 22.0 0.09 0.69 0.21 89 1004.8
20260903110825 58 184 9.0 18.0 0.13 0.69 0.21 89 1004.7
20260903110325 59 156 8.0 18.0 0.13 0.69 0.21 89 1004.7
20260903105826 58 184 6.0 18.0 0.20 0.56 0.21 89 1004.6
20260903105325 59 200 10.0 24.0 0.20 0.56 0.21 89 1004.7
20260903104825 59 148 9.0 24.0 0.19 0.56 0.21 89 1004.6
20260903104326 59 201 10.0 24.0 0.19 0.56 0.20 89 1004.7
20260903103829 59 205 7.0 22.0 0.16 0.56 0.19 88 1004.8
20260903103325 59 196 7.0 22.0 0.16 0.56 0.16 88 1004.7
20260903102826 59 154 6.0 22.0 0.14 0.56 0.16 88 1004.7
20260903102454 59 219 6.0 17.0 0.12 0.56 0.13 88 1004.8
20260903102325 59 246 11.0 20.0 0.14 0.56 0.15 88 1004.6
20260903101825 59 183 3.0 12.0 0.12 0.56 0.14 88 1004.7
20260903101326 59 219 6.0 17.0 0.12 0.56 0.13 88 1004.8
20260903100825 59 226 8.0 17.0 0.08 0.56 0.11 87 1004.8
20260903100325 59 135 4.0 17.0 0.08 0.56 0.09 87 1004.7
20260903095826 59 163 5.0 11.0 0.01 0.48 0.06 87 1004.6
20260903095325 59 191 6.0 12.0 0.01 0.48 0.01 87 1004.6
20260903094825 59 172 4.0 12.0 0.01 0.48 0.01 86 1004.6
20260903094326 59 196 7.0 12.0 0.01 0.48 0.01 86 1004.7
20260903093825 59 154 7.0 11.0 0.00 0.48 0.01 86 1004.8
20260903093325 59 187 5.0 11.0 0.00 0.48 0.00 86 1004.8
20260903092826 60 156 5.0 21.0 0.00 0.48 0.00 86 1004.8
20260903092325 60 217 3.0 21.0 0.00 0.48 0.00 86 1004.8
20260903091825 59 173 5.0 21.0 0.00 0.48 0.00 86 1004.8
20260903091326 60 179 6.0 18.0 0.00 0.48 0.00 86 1004.8
20260903090825 59 203 10.0 14.0 0.00 0.48 0.00 86 1004.8
20260903090326 59 147 7.0 14.0 0.00 0.48 0.00 86 1004.8
20260903085825 59 103 4.0 13.0 0.00 0.48 0.00 86 1004.8
20260903085325 59 200 7.0 13.0 0.00 0.48 0.00 86 1004.7
20260903084825 59 142 4.0 14.0 0.00 0.48 0.00 86 1004.7
20260903084326 59 196 3.0 14.0 0.00 0.48 0.00 86 1004.7
20260903083825 59 112 7.0 14.0 0.00 0.48 0.00 86 1004.6
20260903083325 59 179 7.0 10.0 0.00 0.48 0.00 87 1004.6
20260903082826 59 120 3.0 10.0 0.00 0.48 0.00 87 1004.6
20260903082325 59 172 5.0 14.0 0.00 0.48 0.00 87 1004.6
20260903081825 59 238 5.0 14.0 0.00 0.48 0.00 87 1004.7
20260903081326 59 184 4.0 14.0 0.00 0.48 0.00 87 1004.9
20260903080825 59 193 5.0 12.0 0.00 0.48 0.00 87 1004.9
20260903075826 59 156 4.0 12.0 0.00 0.48 0.00 87 1005.0
20260903075357 59 184 3.0 15.0 0.00 0.48 0.00 87 1005.0
20260903075326 59 184 3.0 15.0 0.00 0.48 0.00 87 1005.0
20260903074825 60 149 4.0 15.0 0.00 0.48 0.00 87 1005.0
20260903074326 59 166 4.0 15.0 0.00 0.48 0.00 87 1004.9
20260903073825 59 170 5.0 9.0 0.00 0.48 0.00 87 1004.9
20260903073325 59 103 5.0 9.0 0.00 0.48 0.00 87 1005.0
20260903073138 59 238 3.0 13.0 0.00 0.48 0.00 87 1005.0
20260903072826 59 238 3.0 13.0 0.00 0.48 0.00 87 1005.0
20260903072325 59 183 5.0 13.0 0.00 0.48 0.00 87 1005.0
20260903071825 59 91 4.0 13.0 0.00 0.48 0.00 87 1005.0
20260903071326 60 91 5.0 11.0 0.00 0.48 0.00 87 1004.9
20260903070825 59 183 1.0 11.0 0.00 0.48 0.00 87 1004.9
20260903070325 59 148 5.0 11.0 0.00 0.48 0.00 87 1004.9
20260903065826 60 173 5.0 17.0 0.00 0.48 0.00 87 1004.9
20260903065325 60 151 4.0 17.0 0.00 0.48 0.48 87 1004.8
20260903064825 59 155 3.0 17.0 0.00 0.48 0.48 87 1004.9
20260903063825 59 138 7.0 16.0 0.00 0.48 0.48 87 1004.8
20260903063325 59 168 4.0 16.0 0.00 0.48 0.48 87 1004.9
20260903062826 59 140 7.0 15.0 0.00 0.48 0.48 87 1004.9
20260903062325 59 103 7.0 12.0 0.00 0.48 0.48 87 1004.9
20260903061825 59 197 5.0 16.0 0.00 0.48 0.48 87 1005.0
20260903061326 59 130 7.0 16.0 0.00 0.48 0.48 87 1005.0
20260903060825 59 173 5.0 16.0 0.00 0.48 0.48 87 1005.1
20260903060325 59 183 6.0 12.0 0.00 0.48 0.48 87 1005.1
20260903055826 59 165 6.0 12.0 0.00 0.48 0.48 87 1005.1
20260903055325 59 141 2.0 10.0 0.00 0.48 0.48 87 1005.1
20260903054825 59 168 6.0 14.0 0.00 0.48 0.48 87 1005.1
20260903054326 59 194 7.0 14.0 0.00 0.48 0.48 87 1005.2
20260903053825 59 154 5.0 14.0 0.00 0.48 0.48 87 1005.3
20260903052826 59 126 3.0 17.0 0.00 0.48 0.48 87 1005.2
20260903052325 59 175 7.0 17.0 0.00 0.48 0.48 87 1005.2
20260903051825 59 176 2.0 17.0 0.00 0.48 0.48 87 1005.2
20260903051326 59 235 7.0 11.0 0.00 0.48 0.48 87 1005.1
20260903050825 59 204 5.0 12.0 0.00 0.48 0.48 87 1005.1
20260903050325 59 172 6.0 12.0 0.00 0.48 0.48 87 1005.1
20260903045826 59 168 4.0 12.0 0.00 0.48 0.48 87 1005.0
20260903045325 59 159 5.0 13.0 0.00 0.48 0.48 87 1005.0
20260903044825 59 127 6.0 13.0 0.00 0.48 0.48 87 1005.0
20260903044326 59 172 6.0 13.0 0.00 0.48 0.48 87 1005.1
20260903043825 59 148 4.0 11.0 0.00 0.48 0.48 87 1005.1
20260903042826 59 135 3.0 16.0 0.00 0.48 0.48 87 1005.0
20260903042325 59 197 5.0 16.0 0.00 0.48 0.48 87 1005.0
20260903041825 59 187 3.0 16.0 0.00 0.48 0.48 87 1005.0
20260903041327 59 190 9.0 11.0 0.00 0.48 0.48 87 1005.0
20260903040825 59 177 3.0 11.0 0.00 0.48 0.48 87 1005.0
20260903040325 59 158 4.0 10.0 0.00 0.48 0.48 87 1005.0
20260903035826 59 190 4.0 17.0 0.00 0.48 0.48 87 1004.9
20260903035325 59 140 5.0 17.0 0.00 0.48 0.48 87 1004.9
20260903034825 59 177 4.0 17.0 0.00 0.48 0.48 87 1004.7
20260903034326 59 183 9.0 14.0 0.00 0.48 0.48 87 1004.7
20260903033825 59 154 5.0 13.0 0.00 0.48 0.48 86 1004.7
20260903033325 59 105 3.0 12.0 0.00 0.48 0.48 86 1004.7
20260903032826 59 211 8.0 11.0 0.00 0.48 0.48 86 1004.6
20260903032325 60 193 3.0 15.0 0.00 0.48 0.48 87 1004.6
20260903031825 60 194 6.0 15.0 0.00 0.48 0.48 86 1004.6
20260903031326 60 190 5.0 15.0 0.00 0.48 0.48 86 1004.6
20260903030825 60 173 8.0 13.0 0.00 0.48 0.48 86 1004.6
20260903030325 60 179 4.0 13.0 0.00 0.48 0.48 86 1004.5
20260903025826 60 201 5.0 13.0 0.00 0.48 0.48 86 1004.5
20260903025325 60 186 4.0 14.0 0.00 0.48 0.48 86 1004.6
20260903024826 60 207 6.0 14.0 0.00 0.48 0.48 86 1004.5
20260903024326 60 196 6.0 14.0 0.00 0.48 0.48 86 1004.5
20260903023825 60 154 6.0 11.0 0.00 0.48 0.48 86 1004.4
20260903023325 60 204 7.0 15.0 0.00 0.48 0.48 86 1004.5
20260903022826 60 177 4.0 15.0 0.00 0.48 0.48 86 1004.5
20260903022325 60 205 7.0 15.0 0.00 0.48 0.48 85 1004.6
20260903021825 60 205 6.0 17.0 0.00 0.48 0.48 85 1004.5
20260903021326 60 184 3.0 17.0 0.00 0.48 0.48 85 1004.5
20260903020825 60 173 7.0 17.0 0.00 0.48 0.48 85 1004.5
20260903020325 60 179 7.0 17.0 0.00 0.48 0.48 85 1004.5
20260903015826 61 182 5.0 17.0 0.00 0.48 0.48 84 1004.5
20260903015325 61 196 4.0 17.0 0.00 0.48 0.48 84 1004.4
20260903014825 61 194 9.0 14.0 0.00 0.48 0.48 84 1004.3
20260903014326 61 205 6.0 20.0 0.00 0.48 0.48 84 1004.4
20260903013825 61 200 10.0 20.0 0.00 0.48 0.48 84 1004.3
20260903013326 61 198 9.0 20.0 0.00 0.48 0.48 84 1004.4
20260903012826 61 207 9.0 19.0 0.00 0.48 0.48 84 1004.4
20260903012325 61 184 11.0 17.0 0.00 0.48 0.48 83 1004.4
20260903011828 61 179 10.0 18.0 0.00 0.48 0.00 84 1004.3
20260903011825 61 179 10.0 18.0 0.00 0.48 0.48 84 1004.3
20260903011326 61 212 7.0 18.0 0.00 0.48 0.48 84 1004.4
20260903010826 61 203 10.0 18.0 0.00 0.48 0.48 84 1004.3
20260903010325 62 256 12.0 15.0 0.00 0.48 0.48 84 1004.3
20260903005826 62 175 8.0 20.0 0.00 0.48 0.48 84 1004.2
20260903005325 62 179 5.0 20.0 0.00 0.48 0.48 84 1004.3
20260903004826 61 210 7.0 20.0 0.00 0.48 0.48 84 1004.2
20260903004326 61 149 9.0 21.0 0.00 0.48 0.48 84 1004.1
20260903003826 61 198 8.0 21.0 0.00 0.48 0.48 84 1004.2
20260903003325 61 180 11.0 21.0 0.00 0.48 0.48 84 1004.2
20260903002825 61 218 7.0 16.0 0.00 0.48 0.48 85 1004.1
20260903002325 61 198 7.0 20.0 0.00 0.48 0.48 84 1004.1
20260903001826 61 201 11.0 20.0 0.00 0.48 0.48 84 1004.0
20260903001326 61 175 11.0 20.0 0.00 0.48 0.48 84 1004.0
20260903000826 62 196 9.0 17.0 0.00 0.48 0.48 85 1004.0
20260903000325 61 176 8.0 14.0 0.00 0.48 0.48 86 1003.8
20260902235826 62 196 7.0 14.0 0.00 0.48 0.48 86 1003.8
20260902235325 62 189 4.0 14.0 0.00 0.48 0.48 86 1003.7
20260902234826 62 190 10.0 13.0 0.00 0.48 0.48 85 1003.6
20260902234326 63 200 6.0 13.0 0.00 0.48 0.48 86 1003.6
20260902233826 63 190 5.0 13.0 0.00 0.48 0.48 87 1003.5
20260902233325 63 196 7.0 13.0 0.00 0.48 0.48 87 1003.4